Wind_Speed
14 14 15 15 15 16 16 16 17 18 16 16 16 16 17 18 18 19 20 20 21 21 21 22 22 23 23 23 24 25 26 27 28 29 30 32 33 35 36 38 40 42 43 45
14 15 15 15 15 16 16 16 16 17 17 16 16 16 17 18 18 19 20 20 21 21 22 23 23 23 24 24 25 26 26 28 29 30 32 33 34 36 38 39 41 43 44 46
15 16 16 16 16 16 16 15 16 17 18 17 16 16 17 18 19 20 20 21 22 22 23 23 24 24 25 26 26 27 28 29 30 31 32 33 35 36 38 40 42 44 46 47
16 17 17 17 16 16 16 16 16 17 17 17 17 17 17 18 19 20 21 22 23 23 24 24 25 25 26 27 28 29 29 30 31 32 34 35 36 37 39 41 43 45 47 49
17 17 17 18 17 17 17 18 18 18 18 18 18 18 18 19 20 21 22 23 24 24 24 25 26 26 27 28 28 29 30 32 33 35 36 38 39 41 42 44 46 48 50 52
18 18 18 19 18 18 19 19 19 19 19 19 19 20 20 20 21 22 23 24 25 25 25 26 27 28 29 30 31 32 33 35 37 38 40 41 43 45 46 48 50 52 54 56
18 19 19 19 19 19 20 20 21 20 20 20 20 21 22 21 22 23 24 25 25 26 26 27 29 30 31 32 33 35 36 38 40 41 43 45 47 48 50 52 54 55 57 59
19 19 19 20 20 20 21 21 22 23 23 21 22 22 23 24 25 25 26 26 27 27 28 29 31 32 33 34 36 38 39 40 42 44 46 48 51 52 54 57 59 61 63 65
20 20 20 20 21 22 22 23 24 25 25 24 22 22 24 26 27 27 27 28 28 29 30 31 33 34 36 38 40 41 43 44 46 49 51 53 56 58 60 63 65 68 70 72
21 20 20 22 23 23 24 25 25 26 28 27 25 23 25 27 28 28 28 29 30 31 32 34 36 38 39 42 44 46 48 50 52 54 56 58 61 63 66 69 71 73 75 77
22 22 22 23 24 25 26 26 27 28 29 31 29 26 27 28 29 30 30 31 32 34 36 38 39 42 44 46 49 51 53 55 58 60 62 64 67 69 72 74 76 78 79 81
24 24 24 25 26 27 27 27 29 30 31 32 32 29 29 30 31 32 33 34 35 37 39 41 44 46 48 51 53 56 58 60 63 65 67 69 72 75 77 79 81 82 83 84
26 26 26 26 27 28 28 28 30 32 33 33 32 30 31 33 34 35 36 37 39 41 43 46 48 50 53 55 58 60 63 65 67 70 72 75 77 80 82 83 84 84 85 84
28 27 27 28 29 30 29 30 32 34 34 35 32 32 33 36 37 38 38 40 42 45 47 49 52 54 57 60 62 64 67 69 72 74 77 79 81 83 84 84 84 84 83 83
29 29 28 29 30 31 31 31 34 35 36 37 35 35 35 37 39 40 42 44 46 49 51 53 56 59 61 63 66 68 71 73 76 78 80 82 83 84 84 83 83 82 81 81
30 31 31 30 32 34 34 33 35 36 37 37 38 37 38 39 40 43 45 47 50 52 54 57 60 62 65 67 70 72 74 76 79 81 82 83 83 83 83 82 82 81 79 77
32 33 34 33 33 36 35 34 35 36 37 38 38 39 39 41 43 46 48 50 52 55 57 60 63 66 68 71 73 75 77 79 81 82 83 83 83 82 82 81 80 77 75 72
33 34 36 37 36 37 36 35 35 37 37 38 39 40 42 44 46 49 51 53 55 58 61 63 66 69 71 74 75 77 79 80 82 82 82 82 82 82 80 78 75 72 69 67
34 35 38 39 39 39 36 36 37 38 39 38 40 42 44 46 48 51 54 56 59 61 64 67 70 72 74 75 77 79 80 82 82 82 82 81 81 79 76 73 69 67 64 61
34 36 39 40 42 41 38 37 38 40 41 40 42 44 46 49 51 53 56 58 61 64 67 70 72 74 75 77 79 80 82 83 83 82 81 79 77 75 72 68 65 63 60 57
34 37 38 40 42 41 40 41 41 42 43 44 45 47 49 52 54 56 58 61 64 67 70 72 74 75 77 79 80 82 82 82 82 80 78 76 73 70 67 65 62 60 57 54
36 38 39 40 41 42 42 43 43 44 45 47 48 50 53 55 57 59 62 65 68 70 72 74 75 76 78 80 81 82 81 81 79 77 75 71 68 65 63 61 59 56 54 52
37 39 40 41 41 42 43 44 45 47 48 49 51 54 56 58 60 63 65 68 70 72 73 75 76 77 78 80 81 81 80 79 77 74 70 67 64 62 60 58 56 53 51 50
39 39 40 41 42 44 45 46 48 49 50 52 54 57 59 61 63 66 68 70 71 73 74 76 78 79 79 79 79 79 78 77 74 71 67 64 61 58 56 54 52 51 49 48
39 40 42 43 44 45 47 48 49 51 53 55 57 59 61 63 66 68 70 71 73 74 76 77 79 80 79 79 78 76 75 74 71 67 64 61 59 56 53 50 49 48 46 46
40 42 44 44 45 47 48 50 51 53 55 57 59 61 63 66 68 70 71 72 74 76 77 78 79 79 78 77 75 74 73 71 69 65 62 59 56 53 51 48 45 45 45 44
Wind_Direction
266 271 275 280 283 286 288 290 291 293 296 295 293 291 290 290 290 289 290 291 292 294 295 296 295 295 294 292 291 290 289 288 287 286 286 286 285 285 285 284 284 284 284 283
266 271 276 280 283 287 290 292 293 294 296 295 294 293 291 290 289 290 291 292 294 296 297 297 297 296 296 295 294 293 292 292 291 290 289 289 287 287 286 285 285 285 285 285
266 272 276 281 284 288 289 291 292 294 296 298 298 295 292 290 290 290 291 293 295 296 297 297 297 297 298 298 297 297 296 295 294 293 292 291 290 288 287 287 286 286 286 285
266 272 276 280 284 287 289 292 293 294 296 298 299 296 293 292 291 291 292 294 295 295 296 297 297 298 299 299 298 298 297 297 297 296 295 293 292 291 290 289 289 288 288 287
265 270 275 279 283 286 288 291 293 293 296 298 299 297 295 294 292 292 293 294 294 295 296 297 298 298 298 298 298 298 298 298 297 297 296 295 294 293 292 291 291 290 289 289
265 269 274 278 281 284 288 290 291 292 295 297 298 297 297 296 294 293 294 294 294 296 297 298 298 297 297 297 298 298 298 298 298 298 297 297 296 295 294 293 292 291 290 290
266 270 273 277 280 284 288 291 292 292 294 297 297 296 297 296 294 294 294 294 295 297 298 298 297 297 298 298 299 300 300 300 300 300 299 299 298 297 296 294 293 292 291 290
266 269 273 277 281 285 288 290 291 293 295 296 296 296 297 297 296 295 295 295 297 298 298 297 297 298 299 300 301 302 302 301 301 301 301 300 299 298 297 296 295 294 293 291
266 269 274 278 282 285 287 288 290 292 293 295 295 295 295 295 295 295 295 296 298 298 297 297 298 300 301 302 303 303 302 302 302 302 301 300 300 299 298 297 296 295 294 293
267 271 275 279 283 286 287 289 290 291 294 296 296 296 295 295 294 293 294 296 297 297 297 298 300 302 303 303 304 304 304 303 303 302 302 301 300 300 299 298 297 296 295 293
268 271 275 279 283 286 288 288 289 291 294 297 298 298 297 295 293 293 294 296 297 297 299 301 303 304 304 305 305 305 305 305 304 304 303 303 302 301 300 299 298 297 296 294
270 272 275 280 283 285 286 287 289 292 294 296 298 301 298 295 293 294 295 297 297 298 300 302 304 305 305 306 306 306 306 305 305 304 304 303 302 302 301 300 299 298 297 295
270 273 276 279 282 283 285 287 289 291 293 295 297 300 297 294 294 295 296 297 297 299 301 303 304 305 306 306 306 306 305 305 305 304 304 304 303 303 302 301 300 299 298 297
271 274 278 281 282 283 285 287 290 291 293 294 296 295 293 293 294 295 296 297 298 300 302 304 305 306 306 306 306 306 306 306 306 305 305 305 304 304 303 303 302 301 300 298
273 276 279 280 281 283 285 288 290 291 293 294 296 294 293 292 294 295 296 298 299 301 302 304 305 305 306 306 306 306 307 307 306 306 306 306 306 306 305 304 303 303 302 301
275 278 279 279 281 284 287 289 289 290 291 293 294 294 293 293 294 295 297 298 300 301 303 304 305 306 306 306 307 307 307 307 307 307 308 308 307 307 306 305 305 304 303 302
277 280 281 281 282 284 287 289 289 290 290 291 292 293 292 293 294 296 297 299 300 302 303 304 305 306 307 307 308 308 308 308 309 309 309 309 308 308 308 307 307 306 305 303
278 280 282 284 284 285 290 290 290 289 290 292 292 292 293 294 296 297 298 300 301 303 304 305 306 307 307 308 308 309 309 310 310 311 311 310 310 309 309 309 308 307 306 305
279 281 282 285 286 287 289 290 290 290 291 292 292 293 294 296 297 298 300 301 303 304 305 306 307 308 308 309 309 310 311 311 312 312 312 311 311 311 311 310 309 308 307 306
278 280 282 285 287 289 290 290 290 290 292 293 293 295 296 298 298 299 301 302 303 305 306 307 308 309 310 310 311 312 312 312 312 313 313 313 312 312 311 311 310 309 308 307
278 280 282 285 286 288 291 292 292 293 295 296 296 297 298 299 300 301 302 303 305 306 308 309 310 310 311 312 312 313 313 313 313 314 314 313 313 312 312 312 311 310 309 308
280 281 282 283 285 288 290 291 293 294 296 297 298 299 300 301 301 302 304 305 306 308 309 310 310 311 312 313 313 314 314 314 314 314 314 314 313 313 312 312 312 311 310 310
279 281 282 283 285 287 289 291 293 295 296 297 298 299 301 302 303 304 305 306 307 309 309 310 311 312 313 314 314 314 315 315 315 315 315 314 314 314 313 313 312 312 311 311
279 280 281 283 285 287 289 291 293 295 296 297 299 300 301 302 304 305 306 307 308 309 310 311 312 313 313 314 315 315 315 315 315 315 315 315 314 314 313 313 312 312 312 312
279 279 281 283 285 287 290 292 294 295 296 298 299 301 302 303 304 306 307 308 309 310 311 312 313 314 314 315 315 315 315 315 315 315 315 315 314 313 313 313 312 312 313 313
278 280 282 284 286 288 290 291 293 295 297 298 300 301 302 303 305 306 307 308 310 311 311 312 313 314 315 315 315 315 315 315 315 315 315 314 314 313 313 312 312 312 313 313
Height
5831 5832 5831 5831 5830 5829 5828 5827 5825 5824 5824 5823 5822 5820 5818 5816 5815 5813 5811 5809 5808 5806 5804 5802 5800 5798 5797 5795 5793 5791 5790 5788 5786 5784 5782 5780 5778 5775 5773 5770 5768 5765 5762 5760
5829 5829 5828 5828 5827 5826 5825 5824 5822 5821 5820 5820 5819 5817 5815 5813 5811 5809 5807 5806 5804 5802 5800 5798 5796 5794 5792 5790 5788 5786 5784 5782 5779 5777 5775 5773 5770 5767 5764 5761 5759 5756 5753 5750
5825 5826 5825 5824 5824 5823 5821 5821 5819 5818 5817 5816 5815 5814 5812 5810 5807 5806 5804 5802 5800 5798 5796 5794 5791 5789 5787 5784 5782 5780 5778 5775 5773 5770 5768 5765 5762 5759 5756 5753 5750 5746 5743 5739
5822 5822 5822 5821 5820 5819 5818 5817 5816 5815 5814 5813 5812 5811 5808 5806 5804 5802 5800 5798 5796 5794 5791 5789 5787 5784 5782 5779 5776 5774 5771 5768 5766 5763 5760 5757 5754 5751 5748 5744 5740 5736 5732 5729
5818 5818 5818 5817 5817 5816 5815 5814 5813 5811 5810 5809 5807 5806 5805 5802 5800 5798 5795 5793 5791 5789 5786 5784 5781 5779 5776 5773 5770 5768 5765 5762 5759 5756 5753 5749 5746 5742 5739 5734 5730 5726 5721 5717
5814 5814 5814 5814 5813 5812 5811 5810 5809 5808 5807 5806 5804 5802 5800 5798 5795 5793 5791 5788 5786 5784 5781 5778 5776 5773 5770 5767 5764 5761 5758 5755 5751 5747 5744 5740 5736 5732 5728 5723 5719 5714 5709 5704
5811 5811 5810 5810 5809 5808 5807 5807 5805 5804 5803 5802 5799 5797 5796 5793 5790 5788 5785 5783 5780 5778 5775 5772 5769 5766 5763 5760 5757 5754 5750 5747 5743 5738 5734 5729 5725 5720 5716 5711 5706 5701 5695 5689
5806 5807 5806 5805 5805 5804 5803 5802 5801 5800 5798 5797 5795 5792 5791 5787 5784 5782 5780 5777 5775 5772 5769 5766 5762 5759 5756 5753 5749 5746 5742 5737 5733 5728 5723 5718 5713 5708 5702 5696 5691 5685 5679 5673
5802 5802 5802 5801 5800 5800 5798 5797 5796 5794 5792 5792 5790 5788 5785 5782 5779 5776 5774 5771 5768 5765 5762 5758 5755 5752 5748 5744 5740 5736 5732 5727 5722 5717 5712 5706 5700 5693 5687 5681 5674 5667 5661 5654
5797 5798 5797 5796 5795 5794 5793 5792 5791 5788 5786 5785 5785 5783 5780 5776 5773 5770 5768 5765 5762 5758 5754 5751 5747 5743 5739 5735 5730 5725 5720 5715 5710 5704 5698 5691 5685 5678 5670 5663 5656 5648 5640 5632
5792 5793 5793 5792 5790 5789 5788 5787 5784 5782 5781 5778 5777 5779 5774 5770 5766 5764 5761 5758 5754 5750 5746 5743 5738 5734 5729 5724 5719 5714 5708 5702 5696 5689 5682 5675 5668 5660 5652 5643 5635 5626 5618 5609
5786 5787 5787 5786 5785 5783 5782 5781 5779 5777 5774 5771 5769 5773 5766 5762 5759 5756 5753 5750 5746 5742 5738 5733 5729 5724 5719 5713 5707 5701 5694 5688 5681 5673 5666 5658 5649 5641 5632 5622 5613 5603 5594 5584
5781 5781 5781 5780 5781 5778 5776 5774 5772 5770 5768 5765 5763 5765 5758 5754 5750 5748 5745 5741 5737 5733 5728 5723 5718 5713 5707 5701 5694 5687 5680 5673 5665 5657 5648 5639 5630 5620 5610 5600 5589 5579 5569 5560
5775 5775 5775 5775 5772 5770 5769 5768 5765 5762 5760 5757 5757 5755 5751 5746 5742 5739 5736 5732 5727 5723 5718 5713 5707 5701 5695 5688 5681 5673 5665 5656 5648 5639 5629 5619 5609 5598 5587 5576 5565 5555 5544 5535
5768 5768 5768 5767 5764 5763 5762 5761 5758 5755 5752 5749 5748 5746 5743 5738 5734 5730 5726 5722 5718 5713 5707 5701 5695 5689 5682 5674 5666 5658 5649 5639 5630 5620 5609 5598 5587 5576 5564 5553 5542 5532 5521 5511
5760 5760 5760 5760 5757 5755 5754 5754 5750 5747 5744 5741 5739 5736 5733 5729 5725 5721 5716 5712 5707 5701 5696 5689 5682 5675 5667 5659 5650 5641 5632 5621 5611 5600 5589 5577 5566 5554 5542 5531 5520 5509 5499 5488
5754 5753 5751 5751 5750 5747 5747 5746 5743 5740 5737 5734 5730 5728 5723 5720 5716 5711 5706 5701 5695 5689 5683 5676 5668 5660 5651 5642 5633 5624 5614 5603 5592 5580 5568 5556 5544 5533 5521 5510 5499 5488 5477 5468
5746 5745 5742 5741 5741 5739 5741 5737 5734 5730 5728 5725 5721 5718 5714 5710 5705 5700 5695 5689 5683 5676 5669 5662 5653 5645 5635 5626 5616 5606 5595 5583 5572 5560 5548 5535 5523 5512 5501 5489 5478 5468 5458 5449
5738 5736 5734 5732 5730 5729 5731 5728 5724 5720 5718 5716 5712 5708 5704 5699 5695 5689 5683 5676 5670 5662 5655 5646 5637 5628 5618 5608 5598 5588 5576 5564 5552 5540 5528 5516 5503 5492 5481 5471 5460 5450 5440 5432
5730 5728 5726 5723 5720 5719 5721 5718 5714 5712 5709 5706 5701 5697 5693 5688 5683 5678 5671 5664 5656 5648 5640 5631 5621 5611 5601 5590 5579 5569 5557 5545 5533 5522 5510 5497 5484 5472 5462 5452 5443 5434 5424 5416
5722 5719 5717 5714 5710 5710 5710 5706 5703 5702 5699 5694 5690 5686 5681 5676 5670 5664 5657 5649 5641 5633 5624 5614 5604 5594 5583 5571 5561 5550 5538 5526 5515 5503 5491 5480 5467 5455 5445 5436 5427 5418 5410 5403
5712 5710 5708 5705 5702 5703 5699 5696 5693 5691 5687 5682 5678 5673 5668 5663 5656 5649 5642 5634 5626 5617 5608 5598 5588 5578 5566 5553 5542 5532 5521 5509 5498 5486 5475 5463 5452 5441 5430 5421 5413 5404 5396 5389
5703 5701 5698 5697 5696 5692 5688 5685 5682 5679 5675 5671 5666 5661 5655 5649 5642 5635 5627 5619 5610 5601 5591 5581 5571 5561 5550 5537 5524 5513 5502 5491 5480 5470 5458 5448 5437 5427 5417 5408 5399 5392 5384 5376
5693 5690 5688 5686 5684 5681 5678 5675 5671 5667 5663 5658 5653 5648 5641 5635 5628 5620 5612 5603 5594 5585 5575 5565 5555 5544 5534 5522 5509 5495 5484 5473 5463 5453 5443 5433 5423 5414 5405 5396 5387 5379 5372 5365
5682 5680 5678 5676 5673 5670 5667 5663 5660 5655 5651 5646 5640 5634 5627 5620 5613 5605 5596 5588 5578 5569 5559 5548 5537 5527 5516 5505 5493 5480 5468 5457 5447 5438 5428 5418 5409 5400 5393 5385 5376 5368 5361 5353
5672 5669 5667 5665 5663 5660 5656 5652 5648 5643 5638 5633 5627 5620 5613 5605 5598 5589 5581 5572 5562 5552 5542 5532 5521 5510 5499 5488 5477 5465 5453 5442 5431 5422 5413 5404 5396 5388 5380 5373 5367 5359 5350 5344